Time,TemperatureF,DewpointF,PressureIn,WindDirection,WindDirectionDegrees,WindSpeedMPH,WindSpeedGustMPH,Humidity,HourlyPrecipIn,Conditions,Clouds,dailyrainin,SoftwareType,DateUTC
2013-01-22 00:02:00,40.6,32.9,30.21,NNE,22,0.0,0.0,74,0.00,,,0.00,WUHU21623XXSP,2013-01-22 08:02:00,
2013-01-22 00:07:00,40.3,32.6,30.21,NNE,22,0.0,0.0,74,0.00,,,0.00,WUHU21623XXSP,2013-01-22 08:07:00,
2013-01-22 00:12:00,40.1,32.4,30.20,NE,45,0.0,0.0,74,0.00,,,0.00,WUHU21623XXSP,2013-01-22 08:12:00,
2013-01-22 00:17:00,39.9,32.3,30.20,NE,45,0.0,0.0,74,0.00,,,0.00,WUHU21623XXSP,2013-01-22 08:17:00,
2013-01-22 00:22:00,39.6,32.1,30.19,NE,45,0.0,0.0,74,0.00,,,0.00,WUHU21623XXSP,2013-01-22 08:22:00,
2013-01-22 00:27:00,39.6,31.9,30.19,NNE,22,0.0,0.0,74,0.00,,,0.00,WUHU21623XXSP,2013-01-22 08:27:00,
2013-01-22 00:32:00,39.4,31.7,30.19,NNE,22,0.0,0.0,74,0.00,,,0.00,WUHU21623XXSP,2013-01-22 08:32:00,
2013-01-22 00:37:00,39.4,32.1,30.19,NNE,22,0.0,0.0,75,0.00,,,0.00,WUHU21623XXSP,2013-01-22 08:37:00,
2013-01-22 00:42:00,39.4,32.1,30.18,NNE,22,0.0,0.0,75,0.00,,,0.00,WUHU21623XXSP,2013-01-22 08:42:00,
2013-01-22 00:47:00,39.6,32.3,30.18,NNE,22,0.0,0.0,75,0.00,,,0.00,WUHU21623XXSP,2013-01-22 08:47:00,
2013-01-22 00:52:00,39.7,32.4,30.18,North,0,0.7,0.7,75,0.00,,,0.00,WUHU21623XXSP,2013-01-22 08:52:00,
2013-01-22 00:57:00,39.7,32.1,30.18,North,0,0.0,0.7,74,0.00,,,0.00,WUHU21623XXSP,2013-01-22 08:57:00,
2013-01-22 01:02:00,39.9,32.3,30.18,North,0,0.0,0.0,74,0.00,,,0.00,WUHU21623XXSP,2013-01-22 09:02:00,
2013-01-22 01:07:00,40.1,32.4,30.17,North,0,0.0,0.0,74,0.00,,,0.00,WUHU21623XXSP,2013-01-22 09:07:00,
2013-01-22 01:12:00,40.3,32.6,30.17,North,0,0.0,0.0,74,0.00,,,0.00,WUHU21623XXSP,2013-01-22 09:12:00,
2013-01-22 01:17:00,40.3,32.6,30.18,North,0,0.0,0.0,74,0.00,,,0.00,WUHU21623XXSP,2013-01-22 09:17:00,
2013-01-22 01:22:00,40.3,32.3,30.18,North,0,0.0,0.0,73,0.00,,,0.00,WUHU21623XXSP,2013-01-22 09:22:00,
2013-01-22 01:27:00,40.5,32.4,30.18,North,0,0.0,0.0,73,0.00,,,0.00,WUHU21623XXSP,2013-01-22 09:27:00,
2013-01-22 01:32:00,40.5,32.4,30.18,North,0,0.0,0.0,73,0.00,,,0.00,WUHU21623XXSP,2013-01-22 09:32:00,
2013-01-22 01:37:00,40.6,32.6,30.17,North,0,0.0,0.0,73,0.00,,,0.00,WUHU21623XXSP,2013-01-22 09:37:00,
2013-01-22 01:42:00,40.8,32.8,30.17,NNE,22,0.0,0.0,73,0.00,,,0.00,WUHU21623XXSP,2013-01-22 09:42:00,
2013-01-22 01:47:00,41.0,32.6,30.17,NNE,22,0.0,0.0,72,0.00,,,0.00,WUHU21623XXSP,2013-01-22 09:47:00,
2013-01-22 01:53:00,41.0,32.6,30.17,NNE,22,0.0,0.0,72,0.00,,,0.00,WUHU21623XXSP,2013-01-22 09:53:00,
2013-01-22 01:58:00,41.0,32.6,30.17,NNE,22,0.0,0.0,72,0.00,,,0.00,WUHU21623XXSP,2013-01-22 09:58:00,
2013-01-22 02:03:00,41.0,32.6,30.17,NNE,22,0.0,0.0,72,0.00,,,0.00,WUHU21623XXSP,2013-01-22 10:03:00,
2013-01-22 02:08:00,41.0,32.6,30.17,NNE,22,0.0,0.0,72,0.00,,,0.00,WUHU21623XXSP,2013-01-22 10:08:00,
2013-01-22 02:13:00,41.0,32.6,30.17,North,0,0.0,0.0,72,0.00,,,0.00,WUHU21623XXSP,2013-01-22 10:13:00,
2013-01-22 02:18:00,40.8,32.5,30.17,NNE,22,0.0,0.0,72,0.00,,,0.00,WUHU21623XXSP,2013-01-22 10:18:00,
2013-01-22 02:23:00,40.8,32.5,30.16,NNE,22,0.0,0.0,72,0.00,,,0.00,WUHU21623XXSP,2013-01-22 10:23:00,
2013-01-22 02:28:00,40.8,32.5,30.16,NNW,337,0.0,0.0,72,0.00,,,0.00,WUHU21623XXSP,2013-01-22 10:28:00,
2013-01-22 02:33:00,40.8,32.5,30.16,NW,315,0.0,0.0,72,0.00,,,0.00,WUHU21623XXSP,2013-01-22 10:33:00,
2013-01-22 02:38:00,40.8,32.5,30.15,SW,225,0.0,0.0,72,0.00,,,0.00,WUHU21623XXSP,2013-01-22 10:38:00,
2013-01-22 02:43:00,40.8,32.5,30.15,NW,315,0.0,0.0,72,0.00,,,0.00,WUHU21623XXSP,2013-01-22 10:43:00,
2013-01-22 02:48:00,40.8,32.5,30.14,WNW,292,0.0,0.0,72,0.00,,,0.00,WUHU21623XXSP,2013-01-22 10:48:00,
2013-01-22 02:53:00,40.8,32.8,30.14,NW,315,0.0,0.0,73,0.00,,,0.00,WUHU21623XXSP,2013-01-22 10:53:00,
2013-01-22 02:58:00,40.8,32.8,30.15,WNW,292,0.0,0.0,73,0.00,,,0.00,WUHU21623XXSP,2013-01-22 10:58:00,
2013-01-22 03:03:00,41.0,33.0,30.14,WNW,292,0.0,0.0,73,0.00,,,0.00,WUHU21623XXSP,2013-01-22 11:03:00,
2013-01-22 03:08:00,41.2,32.8,30.14,SE,135,0.0,0.0,72,0.00,,,0.00,WUHU21623XXSP,2013-01-22 11:08:00,
2013-01-22 03:13:00,41.4,33.0,30.14,SSE,157,0.0,0.0,72,0.00,,,0.00,WUHU21623XXSP,2013-01-22 11:13:00,
2013-01-22 03:18:00,41.9,33.5,30.15,East,90,0.0,0.0,72,0.00,,,0.00,WUHU21623XXSP,2013-01-22 11:18:00,
2013-01-22 03:23:00,42.4,33.8,30.14,NNW,337,0.0,0.0,71,0.00,,,0.00,WUHU21623XXSP,2013-01-22 11:23:00,
2013-01-22 03:28:00,42.8,34.1,30.14,NW,315,0.0,0.0,71,0.00,,,0.00,WUHU21623XXSP,2013-01-22 11:28:00,
2013-01-22 03:33:00,43.0,34.3,30.14,NNW,337,0.0,0.0,71,0.00,,,0.00,WUHU21623XXSP,2013-01-22 11:33:00,
2013-01-22 03:38:00,42.8,33.8,30.14,WSW,247,0.0,0.0,70,0.00,,,0.00,WUHU21623XXSP,2013-01-22 11:38:00,
2013-01-22 03:43:00,42.6,33.6,30.14,North,0,0.0,0.0,70,0.00,,,0.00,WUHU21623XXSP,2013-01-22 11:43:00,
2013-01-22 03:48:00,42.6,33.6,30.14,NNW,337,0.0,0.0,70,0.00,,,0.00,WUHU21623XXSP,2013-01-22 11:48:00,
2013-01-22 03:53:00,42.4,33.4,30.14,WSW,247,0.0,0.0,70,0.00,,,0.00,WUHU21623XXSP,2013-01-22 11:53:00,
2013-01-22 03:58:00,42.6,33.9,30.14,South,180,0.0,0.0,71,0.00,,,0.00,WUHU21623XXSP,2013-01-22 11:58:00,
2013-01-22 04:03:00,42.6,33.9,30.15,SSW,202,0.0,0.0,71,0.00,,,0.00,WUHU21623XXSP,2013-01-22 12:03:00,
2013-01-22 04:08:00,43.2,34.1,30.14,SW,225,0.0,0.0,70,0.00,,,0.00,WUHU21623XXSP,2013-01-22 12:08:00,
2013-01-22 04:13:00,43.3,34.3,30.14,WNW,292,0.0,0.0,70,0.00,,,0.00,WUHU21623XXSP,2013-01-22 12:13:00,
2013-01-22 04:18:00,43.3,34.3,30.15,WNW,292,0.0,0.0,70,0.00,,,0.00,WUHU21623XXSP,2013-01-22 12:18:00,
2013-01-22 04:23:00,43.2,34.1,30.15,WNW,292,0.0,0.0,70,0.00,,,0.00,WUHU21623XXSP,2013-01-22 12:23:00,
2013-01-22 04:28:00,42.6,33.6,30.14,WNW,292,0.0,0.0,70,0.00,,,0.00,WUHU21623XXSP,2013-01-22 12:28:00,
2013-01-22 04:33:00,42.6,33.2,30.14,WNW,292,0.0,0.0,69,0.00,,,0.00,WUHU21623XXSP,2013-01-22 12:33:00,
2013-01-22 04:38:00,42.4,33.4,30.14,NW,315,0.0,0.0,70,0.00,,,0.00,WUHU21623XXSP,2013-01-22 12:38:00,
2013-01-22 04:43:00,42.1,33.1,30.14,NNW,337,0.0,0.0,70,0.00,,,0.00,WUHU21623XXSP,2013-01-22 12:43:00,
2013-01-22 04:48:00,41.7,32.7,30.14,NNW,337,0.0,0.0,70,0.00,,,0.00,WUHU21623XXSP,2013-01-22 12:48:00,
2013-01-22 04:53:00,41.7,32.3,30.14,North,0,0.0,0.0,69,0.00,,,0.00,WUHU21623XXSP,2013-01-22 12:53:00,
2013-01-22 04:58:00,41.7,32.3,30.14,North,0,0.0,0.0,69,0.00,,,0.00,WUHU21623XXSP,2013-01-22 12:58:00,
2013-01-22 05:03:00,41.7,32.3,30.13,North,0,0.0,0.0,69,0.00,,,0.00,WUHU21623XXSP,2013-01-22 13:03:00,
2013-01-22 05:09:00,41.5,32.5,30.13,North,0,0.0,0.0,70,0.00,,,0.00,WUHU21623XXSP,2013-01-22 13:09:00,
2013-01-22 05:14:00,41.5,32.5,30.13,NNW,337,0.0,0.0,70,0.00,,,0.00,WUHU21623XXSP,2013-01-22 13:14:00,
2013-01-22 05:19:00,41.4,32.4,30.13,NNW,337,0.0,0.0,70,0.00,,,0.00,WUHU21623XXSP,2013-01-22 13:19:00,
2013-01-22 05:24:00,41.2,32.2,30.13,NNW,337,0.0,0.0,70,0.00,,,0.00,WUHU21623XXSP,2013-01-22 13:24:00,
2013-01-22 05:29:00,41.2,32.5,30.12,NNE,22,0.0,0.0,71,0.00,,,0.00,WUHU21623XXSP,2013-01-22 13:29:00,
2013-01-22 05:34:00,41.2,32.5,30.12,WSW,247,0.0,0.0,71,0.00,,,0.00,WUHU21623XXSP,2013-01-22 13:34:00,
2013-01-22 05:39:00,41.2,32.8,30.12,South,180,0.0,0.0,72,0.00,,,0.00,WUHU21623XXSP,2013-01-22 13:39:00,
2013-01-22 05:44:00,41.4,33.0,30.12,SSW,202,0.0,0.0,72,0.00,,,0.00,WUHU21623XXSP,2013-01-22 13:44:00,
2013-01-22 05:49:00,41.5,33.2,30.11,ENE,67,0.0,0.0,72,0.00,,,0.00,WUHU21623XXSP,2013-01-22 13:49:00,
2013-01-22 05:54:00,42.4,34.1,30.11,NNW,337,0.0,0.0,72,0.00,,,0.00,WUHU21623XXSP,2013-01-22 13:54:00,
2013-01-22 05:59:00,42.6,33.9,30.11,NNW,337,0.0,0.0,71,0.00,,,0.00,WUHU21623XXSP,2013-01-22 13:59:00,
2013-01-22 06:04:00,42.6,33.9,30.11,NNW,337,0.0,0.0,71,0.00,,,0.00,WUHU21623XXSP,2013-01-22 14:04:00,
2013-01-22 06:09:00,42.6,33.9,30.11,NNW,337,0.0,0.0,71,0.00,,,0.00,WUHU21623XXSP,2013-01-22 14:09:00,
2013-01-22 06:14:00,42.6,33.6,30.10,NW,315,0.0,0.0,70,0.00,,,0.00,WUHU21623XXSP,2013-01-22 14:14:00,
2013-01-22 06:19:00,42.4,33.4,30.11,NNW,337,0.0,0.0,70,0.00,,,0.00,WUHU21623XXSP,2013-01-22 14:19:00,
2013-01-22 06:24:00,42.4,33.4,30.11,North,0,0.0,0.0,70,0.00,,,0.00,WUHU21623XXSP,2013-01-22 14:24:00,
2013-01-22 06:29:00,42.4,33.4,30.11,NW,315,0.0,0.0,70,0.00,,,0.00,WUHU21623XXSP,2013-01-22 14:29:00,
2013-01-22 06:34:00,42.3,33.3,30.11,NNW,337,0.0,0.0,70,0.00,,,0.00,WUHU21623XXSP,2013-01-22 14:34:00,
2013-01-22 06:39:00,42.1,33.1,30.10,NNW,337,0.0,0.0,70,0.00,,,0.00,WUHU21623XXSP,2013-01-22 14:39:00,
2013-01-22 06:44:00,41.9,32.9,30.11,West,270,0.0,0.0,70,0.00,,,0.00,WUHU21623XXSP,2013-01-22 14:44:00,
2013-01-22 06:49:00,41.5,32.5,30.11,NW,315,0.0,0.0,70,0.00,,,0.00,WUHU21623XXSP,2013-01-22 14:49:00,
2013-01-22 06:54:00,41.5,32.9,30.11,NNW,337,0.0,0.0,71,0.00,,,0.00,WUHU21623XXSP,2013-01-22 14:54:00,
2013-01-22 06:59:00,41.5,32.9,30.11,NNW,337,0.0,0.0,71,0.00,,,0.00,WUHU21623XXSP,2013-01-22 14:59:00,
2013-01-22 07:04:00,41.5,32.9,30.11,NNW,337,0.0,0.0,71,0.00,,,0.00,WUHU21623XXSP,2013-01-22 15:04:00,
2013-01-22 07:09:00,41.5,32.9,30.11,NNW,337,0.0,0.0,71,0.00,,,0.00,WUHU21623XXSP,2013-01-22 15:09:00,
2013-01-22 07:14:00,41.5,32.9,30.10,SSE,157,0.0,0.0,71,0.00,,,0.00,WUHU21623XXSP,2013-01-22 15:14:00,
2013-01-22 07:19:00,41.9,33.5,30.10,SSE,157,0.0,0.0,72,0.00,,,0.00,WUHU21623XXSP,2013-01-22 15:19:00,
2013-01-22 07:24:00,42.4,33.8,30.10,North,0,0.0,0.0,71,0.00,,,0.00,WUHU21623XXSP,2013-01-22 15:24:00,
2013-01-22 07:29:00,42.6,33.9,30.10,North,0,0.0,0.0,71,0.00,,,0.00,WUHU21623XXSP,2013-01-22 15:29:00,
2013-01-22 07:34:00,43.0,34.3,30.10,NW,315,0.0,0.0,71,0.00,,,0.00,WUHU21623XXSP,2013-01-22 15:34:00,
2013-01-22 07:39:00,43.0,34.0,30.11,NW,315,0.0,0.0,70,0.00,,,0.00,WUHU21623XXSP,2013-01-22 15:39:00,
2013-01-22 07:44:00,43.0,34.0,30.11,NNW,337,0.0,0.0,70,0.00,,,0.00,WUHU21623XXSP,2013-01-22 15:44:00,
2013-01-22 07:49:00,42.6,33.2,30.11,NNW,337,0.0,0.0,69,0.00,,,0.00,WUHU21623XXSP,2013-01-22 15:49:00,
2013-01-22 07:54:00,42.6,33.2,30.11,NNW,337,0.0,0.0,69,0.00,,,0.00,WUHU21623XXSP,2013-01-22 15:54:00,
2013-01-22 07:59:00,42.6,33.2,30.11,WSW,247,0.0,0.0,69,0.02,,,0.02,WUHU21623XXSP,2013-01-22 15:59:00,
2013-01-22 08:04:00,42.4,33.4,30.11,WSW,247,0.0,0.0,70,0.02,,,0.02,WUHU21623XXSP,2013-01-22 16:04:00,
2013-01-22 08:09:00,42.4,33.4,30.11,SSW,202,0.0,0.0,70,0.02,,,0.02,WUHU21623XXSP,2013-01-22 16:09:00,
2013-01-22 08:14:00,42.6,33.9,30.11,NNW,337,0.0,0.0,71,0.02,,,0.02,WUHU21623XXSP,2013-01-22 16:14:00,
2013-01-22 08:20:00,42.8,33.8,30.11,East,90,0.0,0.0,70,0.02,,,0.02,WUHU21623XXSP,2013-01-22 16:20:00,
2013-01-22 08:25:00,43.3,33.9,30.10,ENE,67,0.0,0.0,69,0.02,,,0.02,WUHU21623XXSP,2013-01-22 16:25:00,
2013-01-22 08:30:00,44.2,34.3,30.11,East,90,0.0,0.0,68,0.02,,,0.02,WUHU21623XXSP,2013-01-22 16:30:00,
2013-01-22 08:35:00,45.1,34.4,30.10,NE,45,0.0,0.0,66,0.02,,,0.02,WUHU21623XXSP,2013-01-22 16:35:00,
2013-01-22 08:40:00,45.5,34.8,30.11,ENE,67,0.0,0.0,66,0.02,,,0.02,WUHU21623XXSP,2013-01-22 16:40:00,
2013-01-22 08:45:00,46.0,34.9,30.11,East,90,0.0,0.0,65,0.02,,,0.02,WUHU21623XXSP,2013-01-22 16:45:00,
2013-01-22 08:50:00,46.0,34.9,30.11,NNW,337,0.0,0.0,65,0.02,,,0.02,WUHU21623XXSP,2013-01-22 16:50:00,
2013-01-22 08:55:00,46.0,34.9,30.11,NNW,337,0.0,0.0,65,0.02,,,0.02,WUHU21623XXSP,2013-01-22 16:55:00,
2013-01-22 09:00:00,45.7,34.6,30.11,NNW,337,0.0,0.0,65,0.00,,,0.02,WUHU21623XXSP,2013-01-22 17:00:00,
2013-01-22 09:05:00,45.3,34.2,30.12,NNW,337,0.0,0.0,65,0.00,,,0.02,WUHU21623XXSP,2013-01-22 17:05:00,
2013-01-22 09:10:00,45.1,34.0,30.11,WNW,292,0.0,0.0,65,0.00,,,0.02,WUHU21623XXSP,2013-01-22 17:10:00,
2013-01-22 09:15:00,44.8,33.7,30.11,North,0,0.0,0.0,65,0.00,,,0.02,WUHU21623XXSP,2013-01-22 17:15:00,
2013-01-22 09:20:00,44.8,33.7,30.11,North,0,0.0,0.0,65,0.00,,,0.02,WUHU21623XXSP,2013-01-22 17:20:00,
2013-01-22 09:25:00,44.4,33.4,30.11,North,0,0.0,0.0,65,0.00,,,0.02,WUHU21623XXSP,2013-01-22 17:25:00,
2013-01-22 09:30:00,44.6,33.5,30.10,NNW,337,0.0,0.0,65,0.00,,,0.02,WUHU21623XXSP,2013-01-22 17:30:00,
2013-01-22 09:35:00,44.8,33.7,30.11,NNW,337,0.0,0.0,65,0.00,,,0.02,WUHU21623XXSP,2013-01-22 17:35:00,
2013-01-22 09:40:00,44.6,33.5,30.11,NNW,337,0.0,0.0,65,0.00,,,0.02,WUHU21623XXSP,2013-01-22 17:40:00,
2013-01-22 09:45:00,45.0,34.3,30.10,NNW,337,0.0,0.0,66,0.00,,,0.02,WUHU21623XXSP,2013-01-22 17:45:00,
2013-01-22 09:50:00,45.1,34.0,30.10,NNW,337,0.0,0.0,65,0.00,,,0.02,WUHU21623XXSP,2013-01-22 17:50:00,
2013-01-22 09:55:00,45.3,34.2,30.10,NNW,337,0.0,0.0,66,0.00,,,0.02,WUHU21623XXSP,2013-01-22 17:55:00,
2013-01-22 10:00:00,45.9,34.9,30.10,North,0,0.0,0.0,66,0.00,,,0.02,WUHU21623XXSP,2013-01-22 18:00:00,
2013-01-22 10:06:00,46.0,35.3,30.10,North,0,0.0,0.0,66,0.00,,,0.02,WUHU21623XXSP,2013-01-22 18:06:00,
2013-01-22 10:11:00,46.2,35.5,30.10,West,270,0.0,0.0,66,0.00,,,0.02,WUHU21623XXSP,2013-01-22 18:11:00,
2013-01-22 10:16:00,46.9,36.1,30.11,West,270,0.0,0.0,66,0.00,,,0.02,WUHU21623XXSP,2013-01-22 18:16:00,
2013-01-22 10:21:00,47.3,36.5,30.11,NW,315,0.0,0.0,66,0.00,,,0.02,WUHU21623XXSP,2013-01-22 18:21:00,
2013-01-22 10:26:00,47.8,37.0,30.11,NW,315,0.0,0.0,66,0.00,,,0.02,WUHU21623XXSP,2013-01-22 18:26:00,
2013-01-22 10:31:00,48.6,37.3,30.11,NNW,337,0.0,0.0,65,0.00,,,0.02,WUHU21623XXSP,2013-01-22 18:31:00,
2013-01-22 10:36:00,48.7,37.5,30.11,NNW,337,0.0,0.0,65,0.00,,,0.02,WUHU21623XXSP,2013-01-22 18:36:00,
2013-01-22 10:41:00,49.3,37.4,30.11,North,0,0.0,0.0,64,0.00,,,0.02,WUHU21623XXSP,2013-01-22 18:41:00,
2013-01-22 10:46:00,49.6,38.3,30.10,East,90,0.0,0.0,65,0.00,,,0.02,WUHU21623XXSP,2013-01-22 18:46:00,
2013-01-22 10:51:00,49.8,37.9,30.11,East,90,0.0,0.0,64,0.00,,,0.02,WUHU21623XXSP,2013-01-22 18:51:00,
2013-01-22 10:56:00,50.5,37.8,30.11,ESE,112,0.0,0.0,61,0.00,,,0.02,WUHU21623XXSP,2013-01-22 18:56:00,
2013-01-22 11:01:00,50.9,37.9,30.10,ESE,112,0.0,0.0,61,0.00,,,0.02,WUHU21623XXSP,2013-01-22 19:01:00,
2013-01-22 11:06:00,51.3,37.7,30.10,SE,135,0.0,0.0,60,0.00,,,0.02,WUHU21623XXSP,2013-01-22 19:06:00,
2013-01-22 11:11:00,51.4,37.5,30.10,ESE,112,0.0,0.0,59,0.00,,,0.02,WUHU21623XXSP,2013-01-22 19:11:00,
2013-01-22 11:17:00,51.6,37.2,30.09,ESE,112,0.0,0.0,58,0.00,,,0.02,WUHU21623XXSP,2013-01-22 19:17:00,
2013-01-22 11:22:00,52.3,36.8,30.10,ESE,112,0.0,0.0,57,0.00,,,0.02,WUHU21623XXSP,2013-01-22 19:22:00,
2013-01-22 11:27:00,52.9,37.5,30.09,ESE,112,0.0,0.0,56,0.00,,,0.02,WUHU21623XXSP,2013-01-22 19:27:00,
2013-01-22 11:32:00,53.2,37.4,30.09,ESE,112,0.0,0.0,55,0.00,,,0.02,WUHU21623XXSP,2013-01-22 19:32:00,
2013-01-22 11:37:00,53.8,37.6,30.09,ESE,112,0.0,0.0,54,0.00,,,0.02,WUHU21623XXSP,2013-01-22 19:37:00,
2013-01-22 11:42:00,54.1,37.8,30.09,ESE,112,0.0,0.0,54,0.00,,,0.02,WUHU21623XXSP,2013-01-22 19:42:00,
2013-01-22 11:47:00,54.3,37.9,30.08,ESE,112,0.0,0.0,54,0.00,,,0.02,WUHU21623XXSP,2013-01-22 19:47:00,
2013-01-22 11:52:00,54.3,37.5,30.08,ESE,112,0.0,0.0,53,0.00,,,0.02,WUHU21623XXSP,2013-01-22 19:52:00,
2013-01-22 11:57:00,54.5,37.6,30.08,ESE,112,0.0,0.0,53,0.00,,,0.02,WUHU21623XXSP,2013-01-22 19:57:00,
2013-01-22 12:02:00,54.7,37.8,30.08,ESE,112,0.0,0.0,53,0.00,,,0.02,WUHU21623XXSP,2013-01-22 20:02:00,
2013-01-22 12:07:00,55.0,37.7,30.08,ESE,112,0.0,0.0,52,0.00,,,0.02,WUHU21623XXSP,2013-01-22 20:07:00,
2013-01-22 12:12:00,55.2,37.8,30.08,ESE,112,0.0,0.0,52,0.00,,,0.02,WUHU21623XXSP,2013-01-22 20:12:00,
2013-01-22 12:17:00,55.2,37.8,30.08,ESE,112,0.0,0.0,52,0.00,,,0.02,WUHU21623XXSP,2013-01-22 20:17:00,
2013-01-22 12:22:00,55.6,37.7,30.08,ESE,112,0.0,0.0,51,0.00,,,0.02,WUHU21623XXSP,2013-01-22 20:22:00,
2013-01-22 12:27:00,55.6,37.7,30.08,East,90,0.0,0.0,51,0.00,,,0.02,WUHU21623XXSP,2013-01-22 20:27:00,
2013-01-22 12:32:00,55.8,37.9,30.08,ESE,112,0.0,0.0,51,0.00,,,0.02,WUHU21623XXSP,2013-01-22 20:32:00,
2013-01-22 12:37:00,55.9,38.0,30.07,ESE,112,0.0,0.0,51,0.00,,,0.02,WUHU21623XXSP,2013-01-22 20:37:00,
2013-01-22 12:42:00,55.9,37.6,30.07,ESE,112,0.0,0.0,50,0.00,,,0.02,WUHU21623XXSP,2013-01-22 20:42:00,
2013-01-22 12:47:00,56.1,37.8,30.06,ESE,112,0.0,0.0,50,0.00,,,0.02,WUHU21623XXSP,2013-01-22 20:47:00,
2013-01-22 12:52:00,56.5,37.5,30.06,ESE,112,0.0,0.0,49,0.00,,,0.02,WUHU21623XXSP,2013-01-22 20:52:00,
2013-01-22 12:57:00,56.5,37.5,30.06,East,90,0.0,0.0,48,0.00,,,0.02,WUHU21623XXSP,2013-01-22 20:57:00,
2013-01-22 13:02:00,56.8,37.3,30.06,ESE,112,0.0,0.0,48,0.00,,,0.02,WUHU21623XXSP,2013-01-22 21:02:00,
2013-01-22 13:07:00,56.8,37.3,30.06,ESE,112,0.0,0.0,48,0.00,,,0.02,WUHU21623XXSP,2013-01-22 21:07:00,
2013-01-22 13:12:00,56.8,37.9,30.06,ESE,112,0.0,0.0,49,0.00,,,0.02,WUHU21623XXSP,2013-01-22 21:12:00,
2013-01-22 13:17:00,56.8,37.3,30.06,ESE,112,0.0,0.0,48,0.00,,,0.02,WUHU21623XXSP,2013-01-22 21:17:00,
2013-01-22 13:22:00,56.8,37.9,30.06,SSE,157,0.0,0.7,49,0.00,,,0.02,WUHU21623XXSP,2013-01-22 21:22:00,
2013-01-22 13:27:00,56.8,37.3,30.06,SSE,157,0.0,0.7,48,0.00,,,0.02,WUHU21623XXSP,2013-01-22 21:27:00,
2013-01-22 13:31:00,56.8,37.3,30.06,SSE,157,0.0,0.0,48,0.00,,,0.02,WUHU21623XXSP,2013-01-22 21:31:00,
2013-01-22 13:36:00,57.0,36.9,30.06,ENE,67,0.0,0.0,47,0.00,,,0.02,WUHU21623XXSP,2013-01-22 21:36:00,
2013-01-22 13:41:00,57.0,36.9,30.06,NNE,22,0.0,0.0,47,0.00,,,0.02,WUHU21623XXSP,2013-01-22 21:41:00,
2013-01-22 13:47:00,57.0,36.9,30.06,ESE,112,0.0,0.0,47,0.00,,,0.02,WUHU21623XXSP,2013-01-22 21:47:00,
2013-01-22 13:52:00,57.0,36.9,30.06,ESE,112,0.0,0.0,47,0.02,,,0.04,WUHU21623XXSP,2013-01-22 21:52:00,
2013-01-22 13:57:00,57.0,37.5,30.06,North,0,0.0,0.0,48,0.02,,,0.04,WUHU21623XXSP,2013-01-22 21:57:00,
2013-01-22 14:02:00,56.8,37.3,30.07,SSE,157,0.0,0.0,48,0.02,,,0.04,WUHU21623XXSP,2013-01-22 22:02:00,
2013-01-22 14:07:00,56.8,37.3,30.06,SE,135,0.0,0.0,48,0.02,,,0.04,WUHU21623XXSP,2013-01-22 22:07:00,
2013-01-22 14:12:00,56.8,37.3,30.06,ENE,67,0.0,0.0,48,0.02,,,0.04,WUHU21623XXSP,2013-01-22 22:12:00,
2013-01-22 14:17:00,56.8,36.8,30.06,ENE,67,0.0,0.0,47,0.02,,,0.04,WUHU21623XXSP,2013-01-22 22:17:00,
2013-01-22 14:22:00,56.8,37.3,30.06,East,90,0.0,0.0,48,0.02,,,0.04,WUHU21623XXSP,2013-01-22 22:22:00,
2013-01-22 14:27:00,56.8,37.3,30.06,SSE,157,0.0,0.0,48,0.02,,,0.04,WUHU21623XXSP,2013-01-22 22:27:00,
2013-01-22 14:32:00,56.8,37.3,30.06,East,90,0.0,0.0,48,0.02,,,0.04,WUHU21623XXSP,2013-01-22 22:32:00,
2013-01-22 14:37:00,56.5,37.0,30.06,North,0,0.0,0.0,48,0.02,,,0.04,WUHU21623XXSP,2013-01-22 22:37:00,
2013-01-22 14:42:00,56.5,37.0,30.06,North,0,0.0,0.0,48,0.02,,,0.04,WUHU21623XXSP,2013-01-22 22:42:00,
2013-01-22 14:47:00,56.3,37.4,30.06,North,0,0.0,0.0,49,0.00,,,0.04,WUHU21623XXSP,2013-01-22 22:47:00,
2013-01-22 14:52:00,56.1,37.2,30.06,North,0,0.0,0.0,49,0.00,,,0.04,WUHU21623XXSP,2013-01-22 22:52:00,
2013-01-22 14:57:00,55.9,37.6,30.06,ENE,67,0.0,0.0,50,0.00,,,0.04,WUHU21623XXSP,2013-01-22 22:57:00,
2013-01-22 15:02:00,55.6,37.2,30.05,ENE,67,0.0,0.0,50,0.00,,,0.04,WUHU21623XXSP,2013-01-22 23:02:00,
2013-01-22 15:07:00,55.2,36.9,30.05,ENE,67,0.0,0.0,50,0.00,,,0.04,WUHU21623XXSP,2013-01-22 23:07:00,
2013-01-22 15:12:00,55.2,36.9,30.05,East,90,0.0,0.0,50,0.00,,,0.04,WUHU21623XXSP,2013-01-22 23:12:00,
2013-01-22 15:17:00,55.2,36.9,30.06,East,90,0.0,0.0,50,0.00,,,0.04,WUHU21623XXSP,2013-01-22 23:17:00,
2013-01-22 15:22:00,55.2,37.3,30.05,ESE,112,0.0,0.0,51,0.00,,,0.04,WUHU21623XXSP,2013-01-22 23:22:00,
2013-01-22 15:27:00,55.4,37.0,30.05,East,90,0.0,0.0,50,0.00,,,0.04,WUHU21623XXSP,2013-01-22 23:27:00,
2013-01-22 15:32:00,55.6,37.2,30.05,ESE,112,0.0,0.0,50,0.00,,,0.04,WUHU21623XXSP,2013-01-22 23:32:00,
2013-01-22 15:37:00,55.6,37.2,30.04,ESE,112,0.0,0.0,50,0.00,,,0.04,WUHU21623XXSP,2013-01-22 23:37:00,
2013-01-22 15:42:00,55.6,38.2,30.04,ESE,112,0.0,0.0,52,0.00,,,0.04,WUHU21623XXSP,2013-01-22 23:42:00,
2013-01-22 15:47:00,55.4,38.4,30.04,ESE,112,0.0,0.0,53,0.00,,,0.04,WUHU21623XXSP,2013-01-22 23:47:00,
2013-01-22 15:52:00,55.2,38.8,30.04,ESE,112,0.0,0.0,54,0.00,,,0.04,WUHU21623XXSP,2013-01-22 23:52:00,
2013-01-22 15:58:00,55.0,38.6,30.04,ESE,112,0.0,0.0,54,0.00,,,0.04,WUHU21623XXSP,2013-01-22 23:58:00,
2013-01-22 16:03:00,54.7,38.3,30.04,SE,135,0.0,0.0,54,0.00,,,0.04,WUHU21623XXSP,2013-01-23 00:03:00,
2013-01-22 16:08:00,54.5,38.1,30.04,ESE,112,0.0,0.0,54,0.00,,,0.04,WUHU21623XXSP,2013-01-23 00:08:00,
2013-01-22 16:13:00,54.3,37.9,30.03,ESE,112,0.0,0.0,55,0.00,,,0.04,WUHU21623XXSP,2013-01-23 00:13:00,
2013-01-22 16:18:00,54.1,37.8,30.03,SE,135,0.0,0.0,54,0.00,,,0.04,WUHU21623XXSP,2013-01-23 00:18:00,
2013-01-22 16:23:00,54.0,38.1,30.03,SE,135,0.0,0.0,55,0.00,,,0.04,WUHU21623XXSP,2013-01-23 00:23:00,
2013-01-22 16:28:00,53.8,37.9,30.03,SE,135,0.0,0.0,55,0.00,,,0.04,WUHU21623XXSP,2013-01-23 00:28:00,
2013-01-22 16:33:00,53.6,37.8,30.03,SE,135,0.0,0.0,55,0.00,,,0.04,WUHU21623XXSP,2013-01-23 00:33:00,
2013-01-22 16:38:00,53.4,37.6,30.03,SSE,157,0.0,0.0,55,0.00,,,0.04,WUHU21623XXSP,2013-01-23 00:38:00,
2013-01-22 16:43:00,53.4,37.6,30.03,SE,135,0.0,0.0,55,0.00,,,0.04,WUHU21623XXSP,2013-01-23 00:43:00,
2013-01-22 16:48:00,53.2,37.4,30.03,SSE,157,0.0,0.0,55,0.00,,,0.04,WUHU21623XXSP,2013-01-23 00:48:00,
2013-01-22 16:53:00,53.2,37.4,30.03,SSE,157,0.0,0.0,55,0.00,,,0.04,WUHU21623XXSP,2013-01-23 00:53:00,
2013-01-22 16:58:00,53.1,37.2,30.03,ESE,112,0.0,0.0,55,0.00,,,0.04,WUHU21623XXSP,2013-01-23 00:58:00,
2013-01-22 17:03:00,52.9,37.1,30.03,SE,135,0.0,0.0,55,0.00,,,0.04,WUHU21623XXSP,2013-01-23 01:03:00,
2013-01-22 17:08:00,52.9,37.1,30.04,West,270,0.0,0.0,55,0.00,,,0.04,WUHU21623XXSP,2013-01-23 01:08:00,
2013-01-22 17:13:00,52.5,36.3,30.04,WNW,292,0.0,0.0,54,0.00,,,0.04,WUHU21623XXSP,2013-01-23 01:13:00,
2013-01-22 17:18:00,52.5,36.3,30.04,SSW,202,0.0,0.0,54,0.00,,,0.04,WUHU21623XXSP,2013-01-23 01:18:00,
2013-01-22 17:23:00,52.5,36.3,30.04,SE,135,0.0,0.0,55,0.00,,,0.04,WUHU21623XXSP,2013-01-23 01:23:00,
2013-01-22 17:28:00,52.3,37.0,30.04,SE,135,0.0,0.0,56,0.00,,,0.04,WUHU21623XXSP,2013-01-23 01:28:00,
2013-01-22 17:33:00,52.0,36.7,30.04,East,90,0.0,0.0,56,0.00,,,0.04,WUHU21623XXSP,2013-01-23 01:33:00,
2013-01-22 17:38:00,52.0,36.7,30.04,ENE,67,0.0,0.0,56,0.00,,,0.04,WUHU21623XXSP,2013-01-23 01:38:00,
2013-01-22 17:43:00,51.6,36.3,30.04,SE,135,0.0,0.0,56,0.00,,,0.04,WUHU21623XXSP,2013-01-23 01:43:00,
2013-01-22 17:48:00,51.6,36.3,30.04,East,90,0.0,0.0,56,0.00,,,0.04,WUHU21623XXSP,2013-01-23 01:48:00,
2013-01-22 17:53:00,51.6,36.3,30.04,NNE,22,0.0,0.0,56,0.00,,,0.04,WUHU21623XXSP,2013-01-23 01:53:00,
2013-01-22 17:58:00,51.4,36.2,30.05,NE,45,0.0,0.0,56,0.00,,,0.04,WUHU21623XXSP,2013-01-23 01:58:00,
2013-01-22 18:03:00,51.4,36.6,30.04,NE,45,0.0,0.0,57,0.00,,,0.04,WUHU21623XXSP,2013-01-23 02:03:00,
2013-01-22 18:08:00,51.4,37.1,30.04,NE,45,0.0,0.0,58,0.00,,,0.04,WUHU21623XXSP,2013-01-23 02:08:00,
2013-01-22 18:13:00,51.1,37.2,30.04,NE,45,0.0,0.0,59,0.00,,,0.04,WUHU21623XXSP,2013-01-23 02:13:00,
2013-01-22 18:18:00,51.1,37.7,30.04,East,90,0.0,0.0,60,0.00,,,0.04,WUHU21623XXSP,2013-01-23 02:18:00,
2013-01-22 18:23:00,51.1,38.0,30.04,South,180,0.0,0.0,61,0.00,,,0.04,WUHU21623XXSP,2013-01-23 02:23:00,
2013-01-22 18:28:00,50.9,37.9,30.04,SSE,157,0.0,0.0,61,0.00,,,0.04,WUHU21623XXSP,2013-01-23 02:28:00,
2013-01-22 18:33:00,50.9,37.9,30.04,SSE,157,0.0,0.0,61,0.00,,,0.04,WUHU21623XXSP,2013-01-23 02:33:00,
2013-01-22 18:38:00,50.7,37.7,30.04,NW,315,0.0,0.0,61,0.00,,,0.04,WUHU21623XXSP,2013-01-23 02:38:00,
2013-01-22 18:43:00,50.7,37.7,30.04,NW,315,0.0,0.0,61,0.00,,,0.04,WUHU21623XXSP,2013-01-23 02:43:00,
2013-01-22 18:48:00,50.5,37.6,30.04,NW,315,0.0,0.0,61,0.00,,,0.04,WUHU21623XXSP,2013-01-23 02:48:00,
2013-01-22 18:53:00,50.4,37.4,30.04,NW,315,0.0,0.0,61,0.00,,,0.04,WUHU21623XXSP,2013-01-23 02:53:00,
2013-01-22 18:58:00,50.4,37.4,30.04,NW,315,0.0,0.0,61,0.00,,,0.04,WUHU21623XXSP,2013-01-23 02:58:00,
2013-01-22 19:03:00,50.2,37.6,30.04,NW,315,0.0,0.0,62,0.00,,,0.04,WUHU21623XXSP,2013-01-23 03:03:00,
2013-01-22 19:08:00,50.2,37.6,30.04,NW,315,0.0,0.0,62,0.00,,,0.04,WUHU21623XXSP,2013-01-23 03:08:00,
2013-01-22 19:13:00,50.2,37.6,30.04,NW,315,0.0,0.0,62,0.00,,,0.04,WUHU21623XXSP,2013-01-23 03:13:00,
2013-01-22 19:18:00,50.0,37.9,30.04,NNW,337,0.0,0.0,63,0.00,,,0.04,WUHU21623XXSP,2013-01-23 03:18:00,
2013-01-22 19:23:00,49.8,38.1,30.04,NNW,337,0.0,0.0,64,0.00,,,0.04,WUHU21623XXSP,2013-01-23 03:23:00,
2013-01-22 19:28:00,49.8,38.5,30.03,NNW,337,0.0,0.0,65,0.00,,,0.04,WUHU21623XXSP,2013-01-23 03:28:00,
2013-01-22 19:33:00,49.6,38.3,30.04,NNW,337,0.0,0.0,65,0.00,,,0.04,WUHU21623XXSP,2013-01-23 03:33:00,
2013-01-22 19:38:00,49.6,38.7,30.03,NNW,337,0.0,0.0,66,0.00,,,0.04,WUHU21623XXSP,2013-01-23 03:38:00,
2013-01-22 19:43:00,49.6,38.7,30.02,NNW,337,0.0,0.0,66,0.00,,,0.04,WUHU21623XXSP,2013-01-23 03:43:00,
2013-01-22 19:48:00,49.5,38.5,30.03,NNW,337,0.0,0.0,66,0.00,,,0.04,WUHU21623XXSP,2013-01-23 03:48:00,
2013-01-22 19:54:00,49.3,38.4,30.03,West,270,0.0,0.0,66,0.00,,,0.04,WUHU21623XXSP,2013-01-23 03:54:00,
2013-01-22 19:59:00,49.3,38.4,30.02,West,270,0.0,0.0,66,0.00,,,0.04,WUHU21623XXSP,2013-01-23 03:59:00,
2013-01-22 20:04:00,49.3,38.4,30.02,West,270,0.0,0.0,66,0.00,,,0.04,WUHU21623XXSP,2013-01-23 04:04:00,
2013-01-22 20:09:00,49.1,37.8,30.02,NW,315,0.0,0.0,65,0.00,,,0.04,WUHU21623XXSP,2013-01-23 04:09:00,
2013-01-22 20:14:00,48.9,37.6,30.02,NW,315,0.0,0.0,65,0.00,,,0.04,WUHU21623XXSP,2013-01-23 04:14:00,
2013-01-22 20:19:00,48.7,37.5,30.03,NNW,337,0.0,0.0,65,0.00,,,0.04,WUHU21623XXSP,2013-01-23 04:19:00,
2013-01-22 20:24:00,48.6,37.5,30.02,NNW,337,0.0,0.0,64,0.00,,,0.04,WUHU21623XXSP,2013-01-23 04:24:00,
2013-01-22 20:29:00,48.4,36.7,30.02,NNW,337,0.0,0.0,64,0.00,,,0.04,WUHU21623XXSP,2013-01-23 04:29:00,
2013-01-22 20:34:00,48.4,37.1,30.03,North,0,0.0,0.0,65,0.00,,,0.04,WUHU21623XXSP,2013-01-23 04:34:00,
2013-01-22 20:39:00,48.0,36.8,30.02,NNW,337,0.0,0.0,65,0.00,,,0.04,WUHU21623XXSP,2013-01-23 04:39:00,
2013-01-22 20:44:00,48.0,37.1,30.03,NW,315,0.0,0.0,66,0.00,,,0.04,WUHU21623XXSP,2013-01-23 04:44:00,
2013-01-22 20:49:00,48.0,37.1,30.03,North,0,0.0,0.0,66,0.00,,,0.04,WUHU21623XXSP,2013-01-23 04:49:00,
2013-01-22 20:54:00,48.0,37.5,30.03,North,0,0.0,0.0,67,0.00,,,0.04,WUHU21623XXSP,2013-01-23 04:54:00,
2013-01-22 20:59:00,47.8,37.4,30.03,North,0,0.0,0.0,67,0.00,,,0.04,WUHU21623XXSP,2013-01-23 04:59:00,
2013-01-22 21:01:00,48.0,37.5,30.03,North,0,0.0,0.0,67,0.00,,,0.04,WUHU21623XXSP,2013-01-23 05:01:00,
2013-01-22 21:03:00,48.0,37.5,30.03,North,0,0.0,0.0,67,0.00,,,0.04,WUHU21623XXSP,2013-01-23 05:03:00,
2013-01-22 21:08:00,48.2,38.1,30.03,ENE,67,0.0,0.0,68,0.00,,,0.04,WUHU21623XXSP,2013-01-23 05:08:00,
2013-01-22 21:13:00,48.4,38.2,30.03,ENE,67,0.0,0.0,68,0.00,,,0.04,WUHU21623XXSP,2013-01-23 05:13:00,
2013-01-22 21:18:00,48.7,38.6,30.03,ENE,67,0.0,0.0,68,0.00,,,0.04,WUHU21623XXSP,2013-01-23 05:18:00,
2013-01-22 21:23:00,48.9,38.6,30.03,NNE,22,0.0,0.0,68,0.00,,,0.04,WUHU21623XXSP,2013-01-23 05:23:00,
2013-01-22 21:28:00,48.9,38.8,30.03,NE,45,0.0,0.0,68,0.00,,,0.04,WUHU21623XXSP,2013-01-23 05:28:00,
2013-01-22 21:33:00,49.1,39.0,30.02,NE,45,0.0,0.0,68,0.00,,,0.04,WUHU21623XXSP,2013-01-23 05:33:00,
2013-01-22 21:38:00,49.1,39.0,30.01,NE,45,0.0,0.0,68,0.00,,,0.04,WUHU21623XXSP,2013-01-23 05:38:00,
2013-01-22 21:43:00,49.3,39.1,30.02,ENE,67,0.0,0.0,68,0.00,,,0.04,WUHU21623XXSP,2013-01-23 05:43:00,
2013-01-22 21:48:00,49.3,39.1,30.02,NNE,22,0.0,0.0,68,0.00,,,0.04,WUHU21623XXSP,2013-01-23 05:48:00,
2013-01-22 21:53:00,49.3,39.1,30.02,ESE,112,0.0,0.0,68,0.00,,,0.04,WUHU21623XXSP,2013-01-23 05:53:00,
2013-01-22 21:58:00,49.3,39.1,30.02,ESE,112,0.0,0.0,68,0.00,,,0.04,WUHU21623XXSP,2013-01-23 05:58:00,
2013-01-22 22:03:00,49.3,39.1,30.02,ESE,112,0.0,0.0,68,0.00,,,0.04,WUHU21623XXSP,2013-01-23 06:03:00,
2013-01-22 22:08:00,49.3,39.5,30.02,ENE,67,0.0,0.0,69,0.00,,,0.04,WUHU21623XXSP,2013-01-23 06:08:00,
2013-01-22 22:13:00,49.1,39.5,30.02,NNW,337,0.0,0.0,69,0.00,,,0.04,WUHU21623XXSP,2013-01-23 06:13:00,
2013-01-22 22:18:00,49.1,39.3,30.01,ENE,67,0.0,0.0,69,0.00,,,0.04,WUHU21623XXSP,2013-01-23 06:18:00,
2013-01-22 22:23:00,49.3,39.5,30.02,ENE,67,0.0,0.0,69,0.00,,,0.04,WUHU21623XXSP,2013-01-23 06:23:00,
2013-01-22 22:28:00,49.3,39.5,30.02,NE,45,0.0,0.0,69,0.00,,,0.04,WUHU21623XXSP,2013-01-23 06:28:00,
2013-01-22 22:33:00,49.3,39.5,30.02,NE,45,0.0,0.0,69,0.00,,,0.04,WUHU21623XXSP,2013-01-23 06:33:00,
2013-01-22 22:38:00,49.1,39.0,30.02,NE,45,0.0,0.0,68,0.00,,,0.04,WUHU21623XXSP,2013-01-23 06:38:00,
2013-01-22 22:43:00,48.9,39.0,30.02,North,0,0.0,0.0,68,0.00,,,0.04,WUHU21623XXSP,2013-01-23 06:43:00,
2013-01-22 22:48:00,48.7,38.8,30.02,North,0,0.0,0.0,68,0.00,,,0.04,WUHU21623XXSP,2013-01-23 06:48:00,
2013-01-22 22:53:00,48.7,39.0,30.03,North,0,0.0,0.0,69,0.00,,,0.04,WUHU21623XXSP,2013-01-23 06:53:00,
2013-01-22 22:59:00,48.7,39.0,30.03,North,0,0.0,0.0,69,0.00,,,0.04,WUHU21623XXSP,2013-01-23 06:59:00,
2013-01-22 23:04:00,48.7,39.0,30.04,North,0,0.0,0.0,69,0.00,,,0.04,WUHU21623XXSP,2013-01-23 07:04:00,
2013-01-22 23:09:00,48.6,39.0,30.04,North,0,0.0,0.0,70,0.00,,,0.04,WUHU21623XXSP,2013-01-23 07:09:00,
2013-01-22 23:14:00,48.6,39.2,30.04,North,0,0.0,0.0,70,0.00,,,0.04,WUHU21623XXSP,2013-01-23 07:14:00,
2013-01-22 23:19:00,48.4,39.2,30.04,NNE,22,0.0,0.0,70,0.00,,,0.04,WUHU21623XXSP,2013-01-23 07:19:00,
2013-01-22 23:24:00,48.4,39.0,30.03,NNE,22,0.0,0.0,70,0.00,,,0.04,WUHU21623XXSP,2013-01-23 07:24:00,
2013-01-22 23:29:00,48.4,39.0,30.02,NNE,22,0.0,0.0,70,0.00,,,0.04,WUHU21623XXSP,2013-01-23 07:29:00,
2013-01-22 23:34:00,48.0,38.8,30.03,NNE,22,0.0,0.0,69,0.00,,,0.04,WUHU21623XXSP,2013-01-23 07:34:00,
2013-01-22 23:39:00,47.8,38.3,30.03,North,0,0.0,0.0,69,0.00,,,0.04,WUHU21623XXSP,2013-01-23 07:39:00,
2013-01-22 23:44:00,47.8,38.1,30.04,NNE,22,0.0,0.0,69,0.00,,,0.04,WUHU21623XXSP,2013-01-23 07:44:00,
2013-01-22 23:49:00,47.5,38.0,30.04,NNE,22,0.0,0.0,69,0.00,,,0.04,WUHU21623XXSP,2013-01-23 07:49:00,
2013-01-22 23:54:00,47.3,37.6,30.03,North,0,0.0,0.0,69,0.00,,,0.04,WUHU21623XXSP,2013-01-23 07:54:00,
2013-01-22 23:59:00,47.1,37.5,30.04,North,0,0.0,0.0,69,0.00,,,0.04,WUHU21623XXSP,2013-01-23 07:59:00,